Flag Weather past 2 weeks in Kuwait City, Kuwait

Now
70 °F

Partly sunny.


Feels Like: 70 °F
Forecast: 66 / 80 °F
Wind: 5 mph from Northeast

Location: Kuwait International Airport

Current Time: Nov 24, 2014 at 8:44:34 AM

Latest Report: Nov 24, 2014 at 8:00 AM


Visibility: 4 mi

Pressure: 29.98 "Hg

Humidity: 64%

Dew point: 57 °F

Location of Kuwait CityLocation

Historic Weather in Kuwait City — Graph

°F

Kuwait City temperature yesterday

Maximum temperature yesterday: 81 °F (at 1:00 PM)
Minimum temperature yesterday: 66 °F (at 12:00 AM)
Average temperature yesterday: 73 °F

Past Weeks' High & Low Weather Summary

 TemperatureHumidityPressure
High88 °F (Nov 22, 3:00 PM)94% (Nov 22, 1:30 AM)30.27 "Hg (Nov 22, 1:30 AM)
Low45 °F (Nov 11, 6:00 AM)10% (Nov 9, 2:00 PM)29.86 "Hg (Nov 22, 2:00 PM)
Average67 °F49%30.06 "Hg
* Reported Nov 9 7:00 AM — Nov 24 7:00 AM, Kuwait City, Weather by CustomWeather, © 2014

Note: Actual official high and low records may vary slightly from our data, if they occured in-between our weather recording intervals... More about our weather records

Advertising

Kuwait City weather history for previous 24 hours

 ConditionsComfort  
Time TempWeatherWind HumidityBarometerVisibility
7:00 AM
Nov 24
68 °FPartly sunny.No wind56%29.95 "Hg4 mi
6:00 AM66 °FClear.7 mph60%29.95 "Hg10 mi
5:00 AM68 °FClear.7 mph56%29.92 "Hg10 mi
4:00 AM66 °FClear.5 mph60%29.92 "Hg10 mi
3:00 AM68 °FClear.12 mph56%29.92 "Hg10 mi
2:00 AM66 °FPassing clouds.6 mph60%29.92 "HgN/A
1:00 AM70 °FPassing clouds.8 mph53%29.92 "HgN/A
12:00 AM70 °FPassing clouds.8 mph53%29.95 "HgN/A
11:00 PM
Nov 23
68 °FClear.5 mph53%29.95 "Hg10 mi
10:00 PM72 °FClear.No wind53%29.95 "Hg10 mi
9:00 PM73 °FClear.5 mph50%29.92 "Hg10 mi
8:00 PM72 °FClear.No wind50%29.95 "Hg10 mi
7:00 PM73 °FClear.No wind47%29.92 "Hg10 mi
6:00 PM75 °FClear.No wind41%29.92 "Hg10 mi
5:00 PM75 °FClear.3 mph44%29.92 "Hg10 mi
4:00 PM79 °FSunny.12 mph32%29.92 "Hg10 mi
3:00 PM81 °FSunny.8 mph30%29.92 "Hg10 mi
2:00 PM81 °FSunny.9 mph32%29.92 "Hg10 mi
1:00 PM81 °FSunny.9 mph34%29.95 "Hg10 mi
12:00 PM79 °FSunny.13 mph34%29.98 "Hg10 mi
11:00 AM79 °FSunny.8 mph34%30.01 "Hg10 mi
10:00 AM77 °FSunny.8 mph39%30.01 "Hg10 mi
9:00 AM73 °FSunny.7 mph50%30.01 "Hg10 mi
8:00 AM68 °FClear.No wind60%29.98 "Hg5 mi
Weather by CustomWeather, © 2014

See weather overviewHow to use our weather pages